Torna al catalogo

THORAD AGENA D DEB

AttivoPO
NORAD 4855·DEBRIS·🇺🇸 United States

Lanciato Apr 8, 1970 da Vandenberg Space Force Base

Loading…

Prossimi Passaggi (prossime 24 ore)

TLE

AggiornatoSource: Space-Track

Epoca: Sep 13, 2026, 20:54 UTC

1 04855U 70025EK  26256.87097979  .00000424  00000-0  49579-3 0  9990
2 04855  99.9577 213.8529 0013997 186.6244 230.0668 13.74902053809163

Traccia THORAD AGENA D DEB in tempo reale con AllMySat

Download on the App Store